Weather in Kurilikha

Russia / Ivanovo Oblast     56°46′41″N   40°51′17″E
temp.,
°C
wind,
m/s
gust,
m/s
humid.,
%
clouds,
%
prec.,
mm/h
press.,
hPa
HPBL,
m
25 february, thu
thu2500:00−16s41094100 0.5 1028450
03:00−15s4995100 1.5 1025480
06:00−14s51195100 1.9 1019433
09:00−12ssw41195100 4.4 1015450
12:00−8s4794100 2.3 1012303
15:00−5sse2297100 2.7 101187
18:000wnw2799100 0.3 1011213
21:00+1wnw3999100 0.4 1012334
26 february, fri
fri2600:00+1w3898100 0.0 1011345
03:000wsw2497100 0.0 1010105
06:00+1sw2699100 0.7 1007182
09:00+2sw3999100 1.2 1005243
12:00+2sw41299100 1.8 1002429
15:00+3wsw51399100 2.3 999465
18:00+2w61596100 2.8 997859
21:00+1w61396100 2.8 9971060
27 february, sat
sat2700:00+1wnw61397100 0.4 995903
03:00+1wnw71396100 0.7 9961095
06:000wnw61297100 0.6 9961065
09:00−6nnw5990100 1.4 998646
12:00−8nnw5987100 0.1 1001670
15:00−7n5987100 0.2 1004629
18:00−8n4891100 0.1 1006591
21:00−9n4991100 0.1 1009554
28 february, sun
sun2800:00−12nnw279672 0.0 1010234
03:00−13nnw389542 0.0 1013234
06:00−13nnw279658 0.0 1014258
09:00−11nnw369271 0.1 1015344
12:00−8nnw478899 0.1 1017584
15:00−6nnw488699 0.1 1017723
18:00−6n3992100 0.1 1019754
21:00−10n239696 0.1 102148
1 march, mon
mon100:00−9nnw229786 0.1 102364
03:00−11nnw239789 0.1 102454
06:00−12nw229660 0.0 102521
09:00−9w239437 0.0 1026115
12:00−4wsw249262 0.0 1025336
15:00−2wsw479177 0.0 1023444
18:00−2wsw41096100 0.1 1021533
21:00−1w41194100 0.2 1018620